| time (UTC) | temp C | wind direction | speed KPH | gust KPH | rain 1hr cm | rain 24hr cm | rain mn cm | humidity % | barometer mb |
| 20260904051031 | 18 | 360 | 8.0 | 0.0 | 0.00 | 0.00 | 0.00 | 85 | 1008.0 |
| 20260904050529 | 18 | 360 | 9.7 | 0.0 | 0.00 | 0.00 | 0.00 | 86 | 1007.9 |
| 20260904050030 | 18 | 360 | 9.7 | 0.0 | 0.00 | 0.00 | 0.00 | 87 | 1007.8 |
| 20260904045528 | 18 | 360 | 8.0 | 0.0 | 0.00 | 0.00 | 0.00 | 88 | 1007.8 |
| 20260904045028 | 17 | 360 | 4.8 | 0.0 | 0.00 | 0.00 | 0.00 | 89 | 1007.6 |
| 20260904044529 | 17 | 360 | 0.0 | 0.0 | 0.00 | 0.00 | 0.00 | 89 | 1007.5 |
| 20260904043525 | 16 | 360 | 1.6 | 0.0 | 0.00 | 0.00 | 0.00 | 88 | 1007.5 |
| 20260904043026 | 16 | 360 | 1.6 | 0.0 | 0.00 | 0.00 | 0.00 | 89 | 1007.6 |
| 20260904042526 | 16 | 360 | 0.0 | 0.0 | 0.00 | 0.00 | 0.00 | 89 | 1007.6 |
| 20260904042029 | 16 | 360 | 0.0 | 0.0 | 0.00 | 0.00 | 0.00 | 89 | 1007.7 |
| 20260904041526 | 15 | 360 | 1.6 | 0.0 | 0.00 | 0.00 | 0.00 | 89 | 1007.6 |
| 20260904041025 | 15 | 360 | 1.6 | 0.0 | 0.00 | 0.00 | 0.00 | 88 | 1007.7 |
| 20260904040528 | 15 | 360 | 3.2 | 0.0 | 0.00 | 0.00 | 0.00 | 87 | 1007.7 |
| 20260904040025 | 14 | 360 | 3.2 | 0.0 | 0.00 | 0.00 | 0.00 | 87 | 1007.7 |
| 20260904035524 | 14 | 360 | 1.6 | 0.0 | 0.00 | 0.00 | 0.00 | 85 | 1007.6 |
| 20260904035027 | 15 | 360 | 3.2 | 0.0 | 0.00 | 0.00 | 0.00 | 86 | 1007.7 |
| 20260904034527 | 15 | 360 | 3.2 | 0.0 | 0.00 | 0.00 | 0.00 | 86 | 1007.6 |
| 20260904033524 | 15 | 360 | 3.2 | 0.0 | 0.00 | 0.00 | 0.00 | 85 | 1007.6 |
| 20260904033026 | 15 | 360 | 1.6 | 0.0 | 0.00 | 0.00 | 0.00 | 84 | 1007.6 |
| 20260904032523 | 15 | 360 | 0.0 | 0.0 | 0.00 | 0.00 | 0.00 | 84 | 1007.7 |
| 20260904032024 | 15 | 360 | 0.0 | 0.0 | 0.00 | 0.00 | 0.00 | 82 | 1007.6 |
| 20260904031523 | 15 | 360 | 0.0 | 0.0 | 0.00 | 0.00 | 0.00 | 80 | 1007.6 |
| 20260904031026 | 16 | 360 | 0.0 | 0.0 | 0.00 | 0.00 | 0.00 | 80 | 1007.6 |
| 20260904030523 | 16 | 360 | 0.0 | 0.0 | 0.00 | 0.00 | 0.00 | 81 | 1007.6 |
| 20260904030029 | 17 | 360 | 0.0 | 0.0 | 0.00 | 0.00 | 0.00 | 81 | 1007.4 |
| 20260904025522 | 17 | 360 | 0.0 | 0.0 | 0.00 | 0.00 | 0.00 | 81 | 1007.4 |
| 20260904025021 | 17 | 360 | 0.0 | 0.0 | 0.00 | 0.00 | 0.00 | 80 | 1007.5 |
| 20260904024523 | 17 | 360 | 0.0 | 0.0 | 0.00 | 0.00 | 0.00 | 80 | 1007.4 |
| 20260904023520 | 17 | 360 | 0.0 | 0.0 | 0.00 | 0.00 | 0.00 | 79 | 1007.2 |
| 20260904023020 | 17 | 360 | 0.0 | 0.0 | 0.00 | 0.00 | 0.00 | 79 | 1007.1 |
| 20260904022519 | 18 | 360 | 0.0 | 0.0 | 0.00 | 0.00 | 0.00 | 78 | 1007.0 |
| 20260904022019 | 18 | 360 | 0.0 | 0.0 | 0.00 | 0.00 | 0.00 | 77 | 1006.8 |
| 20260904021530 | 18 | 360 | 0.0 | 0.0 | 0.00 | 0.00 | 0.00 | 77 | 1006.8 |
| 20260904021017 | 18 | 360 | 0.0 | 0.0 | 0.00 | 0.00 | 0.00 | 77 | 1006.5 |
| 20260904020516 | 18 | 360 | 1.6 | 0.0 | 0.00 | 0.00 | 0.00 | 76 | 1006.3 |
| 20260904020116 | 19 | 360 | 1.6 | 0.0 | 0.00 | 0.00 | 0.00 | 75 | 1006.2 |
| 20260904015515 | 20 | 360 | 3.2 | 0.0 | 0.00 | 0.00 | 0.00 | 74 | 1006.2 |
| 20260904015016 | 20 | 360 | 1.6 | 0.0 | 0.00 | 0.00 | 0.00 | 72 | 1006.1 |
| 20260904014515 | 21 | 360 | 0.0 | 0.0 | 0.00 | 0.00 | 0.00 | 73 | 1006.0 |
| 20260904013515 | 21 | 360 | 0.0 | 0.0 | 0.00 | 0.00 | 0.00 | 68 | 1005.8 |
| 20260904013015 | 22 | 360 | 0.0 | 0.0 | 0.00 | 0.00 | 0.00 | 67 | 1005.8 |
| 20260904012514 | 23 | 360 | 0.0 | 0.0 | 0.00 | 0.00 | 0.00 | 65 | 1005.8 |
| 20260904012014 | 24 | 360 | 0.0 | 0.0 | 0.00 | 0.00 | 0.00 | 63 | 1005.7 |
| 20260904011514 | 25 | 107 | 0.0 | 0.0 | 0.00 | 0.00 | 0.00 | 63 | 1005.7 |
| 20260904011014 | 25 | 107 | 0.0 | 0.0 | 0.00 | 0.00 | 0.00 | 62 | 1005.7 |
| 20260904010516 | 25 | 107 | 1.6 | 0.0 | 0.00 | 0.00 | 0.00 | 62 | 1005.7 |
| 20260904010019 | 25 | 107 | 1.6 | 0.0 | 0.00 | 0.00 | 0.00 | 61 | 1005.6 |
| 20260904005513 | 25 | 107 | 1.6 | 0.0 | 0.00 | 0.00 | 0.00 | 61 | 1005.6 |
| 20260904005017 | 25 | 107 | 3.2 | 0.0 | 0.00 | 0.00 | 0.00 | 60 | 1005.5 |
| 20260904004514 | 26 | 107 | 3.2 | 0.0 | 0.00 | 0.00 | 0.00 | 60 | 1005.5 |
| 20260904003513 | 26 | 107 | 1.6 | 0.0 | 0.00 | 0.00 | 0.00 | 60 | 1005.3 |
| 20260904003016 | 26 | 107 | 1.6 | 0.0 | 0.00 | 0.00 | 0.00 | 60 | 1005.2 |
| 20260904002513 | 25 | 107 | 3.2 | 0.0 | 0.00 | 0.00 | 0.00 | 61 | 1005.2 |
| 20260904002013 | 25 | 107 | 3.2 | 0.0 | 0.00 | 0.00 | 0.00 | 62 | 1005.1 |
| 20260904001512 | 25 | 107 | 3.2 | 0.0 | 0.00 | 0.00 | 0.00 | 62 | 1005.2 |
| 20260904001013 | 25 | 107 | 3.2 | 0.0 | 0.00 | 0.00 | 0.00 | 62 | 1005.1 |
| 20260904000515 | 25 | 360 | 3.2 | 0.0 | 0.00 | 0.00 | 0.00 | 62 | 1005.1 |
| 20260904000013 | 25 | 360 | 3.2 | 0.0 | 0.00 | 0.00 | 0.00 | 61 | 1005.0 |
| 20260903235512 | 25 | 360 | 3.2 | 0.0 | 0.00 | 0.00 | 0.00 | 60 | 1005.0 |
| 20260903235012 | 25 | 360 | 4.8 | 0.0 | 0.00 | 0.00 | 0.00 | 59 | 1005.0 |
| 20260903234513 | 26 | 360 | 6.4 | 0.0 | 0.00 | 0.00 | 0.00 | 59 | 1005.0 |
| 20260903233512 | 26 | 360 | 8.0 | 0.0 | 0.00 | 0.00 | 0.00 | 58 | 1004.9 |
| 20260903233011 | 26 | 360 | 9.7 | 0.0 | 0.00 | 0.00 | 0.00 | 58 | 1004.9 |
| 20260903232512 | 26 | 360 | 11.3 | 0.0 | 0.00 | 0.00 | 0.00 | 57 | 1004.8 |
| 20260903232011 | 26 | 360 | 8.0 | 0.0 | 0.00 | 0.00 | 0.00 | 56 | 1004.8 |
| 20260903231511 | 27 | 360 | 4.8 | 0.0 | 0.00 | 0.00 | 0.00 | 51 | 1004.7 |
| 20260903231010 | 27 | 360 | 4.8 | 0.0 | 0.00 | 0.00 | 0.00 | 46 | 1004.6 |
| 20260903230510 | 27 | 360 | 6.4 | 0.0 | 0.00 | 0.00 | 0.00 | 45 | 1004.6 |
| 20260903230013 | 27 | 360 | 6.4 | 0.0 | 0.00 | 0.00 | 0.00 | 48 | 1004.5 |
| 20260903225512 | 27 | 360 | 6.4 | 0.0 | 0.00 | 0.00 | 0.00 | 49 | 1004.5 |
| 20260903225010 | 27 | 360 | 6.4 | 0.0 | 0.00 | 0.00 | 0.00 | 51 | 1004.4 |
| 20260903224510 | 27 | 360 | 8.0 | 0.0 | 0.00 | 0.00 | 0.00 | 50 | 1004.4 |
| 20260903223513 | 27 | 360 | 8.0 | 0.0 | 0.00 | 0.00 | 0.00 | 53 | 1004.3 |
| 20260903223010 | 27 | 360 | 6.4 | 0.0 | 0.00 | 0.00 | 0.00 | 49 | 1004.2 |
| 20260903222511 | 27 | 360 | 6.4 | 0.0 | 0.00 | 0.00 | 0.00 | 50 | 1004.3 |
| 20260903222013 | 27 | 360 | 8.0 | 0.0 | 0.00 | 0.00 | 0.00 | 51 | 1004.3 |
| 20260903221525 | 27 | 360 | 8.0 | 0.0 | 0.00 | 0.00 | 0.00 | 51 | 1004.1 |
| 20260903221013 | 27 | 360 | 9.7 | 0.0 | 0.00 | 0.00 | 0.00 | 51 | 1004.1 |
| 20260903220510 | 27 | 360 | 8.0 | 0.0 | 0.00 | 0.00 | 0.00 | 52 | 1004.2 |
| 20260903220010 | 27 | 360 | 8.0 | 0.0 | 0.00 | 0.00 | 0.00 | 52 | 1004.1 |
| 20260903215511 | 27 | 360 | 8.0 | 0.0 | 0.00 | 0.00 | 0.00 | 52 | 1004.0 |
| 20260903215010 | 27 | 360 | 9.7 | 0.0 | 0.00 | 0.00 | 0.00 | 51 | 1004.0 |
| 20260903214510 | 28 | 360 | 9.7 | 0.0 | 0.00 | 0.00 | 0.00 | 52 | 1004.0 |
| 20260903213510 | 27 | 360 | 9.7 | 0.0 | 0.00 | 0.00 | 0.00 | 51 | 1004.0 |
| 20260903213018 | 28 | 360 | 8.0 | 0.0 | 0.00 | 0.00 | 0.00 | 51 | 1004.0 |
| 20260903212509 | 28 | 360 | 8.0 | 0.0 | 0.00 | 0.00 | 0.00 | 52 | 1003.9 |
| 20260903212011 | 28 | 360 | 6.4 | 0.0 | 0.00 | 0.00 | 0.00 | 50 | 1003.9 |
| 20260903211509 | 28 | 360 | 4.8 | 0.0 | 0.00 | 0.00 | 0.00 | 47 | 1003.9 |
| 20260903211008 | 28 | 360 | 3.2 | 0.0 | 0.00 | 0.00 | 0.00 | 48 | 1003.8 |
| 20260903210508 | 28 | 360 | 3.2 | 0.0 | 0.00 | 0.00 | 0.00 | 49 | 1003.8 |
| 20260903210011 | 28 | 360 | 4.8 | 0.0 | 0.00 | 0.00 | 0.00 | 48 | 1003.8 |
| 20260903205510 | 28 | 360 | 6.4 | 0.0 | 0.00 | 0.00 | 0.00 | 48 | 1003.8 |
| 20260903205006 | 28 | 360 | 6.4 | 0.0 | 0.00 | 0.00 | 0.00 | 49 | 1003.8 |
| 20260903204507 | 28 | 360 | 4.8 | 0.0 | 0.00 | 0.00 | 0.00 | 50 | 1003.8 |
| 20260903203507 | 27 | 360 | 3.2 | 0.0 | 0.00 | 0.00 | 0.00 | 50 | 1004.0 |
| 20260903203006 | 27 | 360 | 4.8 | 0.0 | 0.00 | 0.00 | 0.00 | 50 | 1004.1 |
| 20260903202503 | 28 | 360 | 4.8 | 0.0 | 0.00 | 0.00 | 0.00 | 52 | 1004.2 |
| 20260903202003 | 27 | 360 | 3.2 | 0.0 | 0.00 | 0.00 | 0.00 | 53 | 1004.3 |
| 20260903201503 | 27 | 360 | 3.2 | 0.0 | 0.00 | 0.00 | 0.00 | 55 | 1004.3 |
| 20260903201059 | 27 | 360 | 3.2 | 0.0 | 0.00 | 0.00 | 0.00 | 55 | 1004.4 |
| 20260903200559 | 26 | 360 | 4.8 | 0.0 | 0.00 | 0.00 | 0.00 | 55 | 1004.3 |
| 20260903200059 | 27 | 360 | 3.2 | 0.0 | 0.00 | 0.00 | 0.00 | 55 | 1004.2 |
| 20260903195601 | 26 | 360 | 4.8 | 0.0 | 0.00 | 0.00 | 0.00 | 56 | 1004.2 |
| 20260903195057 | 26 | 360 | 6.4 | 0.0 | 0.00 | 0.00 | 0.00 | 57 | 1004.3 |
| 20260903194557 | 26 | 360 | 6.4 | 0.0 | 0.00 | 0.00 | 0.00 | 57 | 1004.3 |
| 20260903193558 | 26 | 360 | 6.4 | 0.0 | 0.00 | 0.00 | 0.00 | 59 | 1004.1 |
| 20260903193056 | 26 | 360 | 4.8 | 0.0 | 0.00 | 0.00 | 0.00 | 60 | 1004.0 |
| 20260903192555 | 25 | 360 | 3.2 | 0.0 | 0.00 | 0.00 | 0.00 | 60 | 1004.2 |
| 20260903192053 | 25 | 360 | 4.8 | 0.0 | 0.00 | 0.00 | 0.00 | 62 | 1004.4 |
| 20260903191552 | 25 | 188 | 4.8 | 0.0 | 0.00 | 0.00 | 0.00 | 64 | 1004.4 |
| 20260903191051 | 24 | 360 | 4.8 | 0.0 | 0.00 | 0.00 | 0.00 | 64 | 1004.5 |
| 20260903190553 | 23 | 88 | 4.8 | 0.0 | 0.00 | 0.00 | 0.00 | 64 | 1004.5 |
| 20260903190051 | 23 | 234 | 4.8 | 0.0 | 0.00 | 0.00 | 0.00 | 64 | 1004.6 |
| 20260903185550 | 23 | 237 | 6.4 | 0.0 | 0.00 | 0.00 | 0.00 | 65 | 1004.6 |
| 20260903185052 | 23 | 181 | 8.0 | 0.0 | 0.00 | 0.00 | 0.00 | 66 | 1004.5 |
| 20260903184550 | 23 | 360 | 6.4 | 0.0 | 0.00 | 0.00 | 0.00 | 66 | 1004.5 |
| 20260903183550 | 23 | 188 | 6.4 | 0.0 | 0.00 | 0.00 | 0.00 | 65 | 1004.4 |
| 20260903183050 | 23 | 360 | 6.4 | 0.0 | 0.00 | 0.00 | 0.00 | 65 | 1004.4 |
| 20260903182550 | 24 | 123 | 6.4 | 0.0 | 0.00 | 0.00 | 0.00 | 65 | 1004.5 |
| 20260903182049 | 24 | 360 | 8.0 | 0.0 | 0.00 | 0.00 | 0.00 | 65 | 1004.4 |
| 20260903181549 | 24 | 103 | 11.3 | 0.0 | 0.00 | 0.00 | 0.00 | 65 | 1004.5 |
| 20260903181048 | 23 | 136 | 11.3 | 0.0 | 0.00 | 0.00 | 0.00 | 66 | 1004.7 |
| 20260903180548 | 23 | 167 | 9.7 | 0.0 | 0.00 | 0.00 | 0.00 | 66 | 1004.7 |
| 20260903180110 | 23 | 174 | 9.7 | 0.0 | 0.00 | 0.00 | 0.00 | 67 | 1004.6 |
| 20260903175547 | 23 | 182 | 9.7 | 0.0 | 0.00 | 0.00 | 0.00 | 68 | 1004.7 |
| 20260903175044 | 23 | 188 | 9.7 | 0.0 | 0.00 | 0.00 | 0.00 | 69 | 1004.8 |
| 20260903174544 | 22 | 360 | 11.3 | 0.0 | 0.00 | 0.00 | 0.00 | 69 | 1004.8 |
| 20260903173543 | 22 | 173 | 11.3 | 0.0 | 0.00 | 0.00 | 0.00 | 69 | 1004.9 |
| 20260903173043 | 22 | 180 | 11.3 | 0.0 | 0.00 | 0.00 | 0.00 | 69 | 1005.1 |
| 20260903172542 | 22 | 360 | 12.9 | 0.0 | 0.00 | 0.00 | 0.00 | 69 | 1005.1 |
| 20260903172042 | 22 | 360 | 11.3 | 0.0 | 0.00 | 0.00 | 0.00 | 69 | 1005.4 |
| 20260903171548 | 22 | 360 | 9.7 | 0.0 | 0.00 | 0.00 | 0.00 | 70 | 1005.6 |
| 20260903171040 | 22 | 171 | 9.7 | 0.0 | 0.00 | 0.00 | 0.00 | 69 | 1005.4 |
| 20260903170541 | 22 | 360 | 9.7 | 0.0 | 0.00 | 0.00 | 0.00 | 70 | 1005.1 |
| 20260903170041 | 22 | 360 | 8.0 | 0.0 | 0.00 | 0.00 | 0.00 | 70 | 1004.9 |
| 20260903165544 | 22 | 95 | 6.4 | 0.0 | 0.00 | 0.00 | 0.00 | 69 | 1004.7 |
| 20260903165044 | 22 | 186 | 6.4 | 0.0 | 0.00 | 0.00 | 0.00 | 69 | 1005.4 |
| 20260903164545 | 22 | 360 | 6.4 | 0.0 | 0.00 | 0.00 | 0.00 | 71 | 1005.1 |
| 20260903163540 | 21 | 360 | 8.0 | 0.0 | 0.00 | 0.00 | 0.00 | 71 | 1005.4 |
| 20260903163044 | 21 | 360 | 6.4 | 0.0 | 0.00 | 0.00 | 0.00 | 72 | 1005.4 |
| 20260903162543 | 21 | 360 | 6.4 | 0.0 | 0.00 | 0.00 | 0.00 | 74 | 1005.2 |
| 20260903162039 | 20 | 360 | 6.4 | 0.0 | 0.00 | 0.00 | 0.00 | 75 | 1005.4 |
| 20260903161538 | 20 | 360 | 6.4 | 0.0 | 0.00 | 0.00 | 0.00 | 75 | 1005.5 |
| 20260903161038 | 20 | 360 | 4.8 | 0.0 | 0.00 | 0.00 | 0.00 | 75 | 1005.6 |
| 20260903160539 | 20 | 360 | 3.2 | 0.0 | 0.00 | 0.00 | 0.00 | 75 | 1005.4 |
| 20260903160039 | 20 | 360 | 4.8 | 0.0 | 0.00 | 0.00 | 0.00 | 75 | 1005.4 |
| 20260903155542 | 20 | 360 | 4.8 | 0.0 | 0.00 | 0.00 | 0.00 | 75 | 1005.5 |
| 20260903155039 | 20 | 360 | 4.8 | 0.0 | 0.00 | 0.00 | 0.00 | 76 | 1005.5 |
| 20260903154538 | 20 | 360 | 6.4 | 0.0 | 0.00 | 0.00 | 0.00 | 75 | 1005.6 |
| 20260903153537 | 20 | 360 | 6.4 | 0.0 | 0.00 | 0.00 | 0.00 | 76 | 1005.4 |
| 20260903153037 | 20 | 360 | 3.2 | 0.0 | 0.00 | 0.00 | 0.00 | 77 | 1005.5 |
| 20260903152537 | 19 | 360 | 3.2 | 0.0 | 0.00 | 0.00 | 0.00 | 78 | 1005.2 |
| 20260903152042 | 19 | 360 | 4.8 | 0.0 | 0.00 | 0.00 | 0.00 | 79 | 1005.0 |
| 20260903151536 | 18 | 360 | 6.4 | 0.0 | 0.00 | 0.00 | 0.00 | 80 | 1004.7 |
| 20260903151037 | 18 | 360 | 6.4 | 0.0 | 0.00 | 0.00 | 0.00 | 80 | 1005.2 |
| 20260903150537 | 18 | 360 | 9.7 | 0.0 | 0.00 | 0.00 | 0.00 | 80 | 1005.4 |
| 20260903150038 | 18 | 360 | 9.7 | 0.0 | 0.00 | 0.00 | 0.00 | 80 | 1005.5 |
| 20260903145538 | 18 | 360 | 9.7 | 0.0 | 0.00 | 0.00 | 0.00 | 81 | 1005.3 |
| 20260903145036 | 18 | 360 | 14.5 | 0.0 | 0.00 | 0.00 | 0.00 | 82 | 1004.1 |
| 20260903144537 | 18 | 360 | 14.5 | 0.0 | 0.00 | 0.00 | 0.00 | 82 | 1003.8 |
| 20260903143535 | 18 | 360 | 11.3 | 0.0 | 0.00 | 0.00 | 0.00 | 82 | 1003.8 |
| 20260903143036 | 18 | 360 | 9.7 | 0.0 | 0.00 | 0.00 | 0.00 | 82 | 1004.1 |
| 20260903142536 | 18 | 360 | 12.9 | 0.0 | 0.00 | 0.00 | 0.00 | 82 | 1004.2 |
| 20260903142036 | 17 | 360 | 11.3 | 0.0 | 0.00 | 0.00 | 0.00 | 83 | 1003.7 |
| 20260903141536 | 17 | 360 | 8.0 | 0.0 | 0.00 | 0.00 | 0.00 | 84 | 1004.4 |
| 20260903141037 | 17 | 360 | 4.8 | 0.0 | 0.00 | 0.00 | 0.00 | 84 | 1004.6 |
| 20260903140539 | 17 | 360 | 3.2 | 0.0 | 0.00 | 0.00 | 0.00 | 84 | 1005.6 |
| 20260903140035 | 17 | 360 | 8.0 | 0.0 | 0.00 | 0.00 | 0.00 | 84 | 1006.1 |
| 20260903135534 | 17 | 360 | 8.0 | 0.0 | 0.00 | 0.00 | 0.00 | 85 | 1006.4 |
| 20260903135036 | 17 | 360 | 3.2 | 0.0 | 0.00 | 0.00 | 0.00 | 85 | 1005.4 |
| 20260903134533 | 17 | 360 | 1.6 | 0.0 | 0.00 | 0.00 | 0.00 | 84 | 1005.7 |
| 20260903133532 | 17 | 360 | 8.0 | 0.0 | 0.00 | 0.00 | 0.00 | 85 | 1005.9 |
| 20260903133032 | 17 | 360 | 9.7 | 0.0 | 0.00 | 0.00 | 0.00 | 86 | 1005.2 |
| 20260903132531 | 17 | 360 | 8.0 | 0.0 | 0.00 | 0.00 | 0.00 | 86 | 1004.8 |
| 20260903132031 | 17 | 360 | 6.4 | 0.0 | 0.00 | 0.00 | 0.00 | 87 | 1005.0 |
| 20260903131531 | 16 | 360 | 4.8 | 0.0 | 0.00 | 0.00 | 0.00 | 88 | 1005.1 |
| 20260903131031 | 16 | 360 | 1.6 | 0.0 | 0.00 | 0.00 | 0.00 | 89 | 1005.2 |
| 20260903130530 | 15 | 360 | 0.0 | 0.0 | 0.00 | 0.00 | 0.00 | 90 | 1005.4 |
| 20260903130031 | 15 | 360 | 1.6 | 0.0 | 0.00 | 0.00 | 0.00 | 89 | 1005.2 |
| 20260903125531 | 15 | 360 | 1.6 | 0.0 | 0.00 | 0.00 | 0.00 | 88 | 1005.0 |
| 20260903125028 | 15 | 360 | 3.2 | 0.0 | 0.00 | 0.00 | 0.00 | 87 | 1004.4 |
| 20260903124527 | 15 | 360 | 4.8 | 0.0 | 0.00 | 0.00 | 0.00 | 87 | 1004.2 |
| 20260903123527 | 15 | 360 | 1.6 | 0.0 | 0.00 | 0.00 | 0.00 | 86 | 1004.1 |
| 20260903123027 | 15 | 360 | 0.0 | 0.0 | 0.00 | 0.00 | 0.00 | 85 | 1004.1 |
| 20260903122526 | 15 | 360 | 0.0 | 0.0 | 0.00 | 0.00 | 0.00 | 84 | 1004.1 |
| 20260903122024 | 16 | 360 | 0.0 | 0.0 | 0.00 | 0.00 | 0.00 | 85 | 1004.0 |
| 20260903121524 | 16 | 360 | 1.6 | 0.0 | 0.00 | 0.00 | 0.00 | 85 | 1004.0 |
| 20260903121023 | 16 | 360 | 1.6 | 0.0 | 0.00 | 0.00 | 0.00 | 85 | 1004.1 |
| 20260903120523 | 16 | 360 | 1.6 | 0.0 | 0.00 | 0.00 | 0.00 | 85 | 1004.1 |
| 20260903120022 | 16 | 360 | 3.2 | 0.0 | 0.00 | 0.00 | 0.00 | 86 | 1004.0 |
| 20260903115522 | 16 | 360 | 6.4 | 0.0 | 0.00 | 0.00 | 0.00 | 86 | 1004.0 |
| 20260903115021 | 16 | 360 | 6.4 | 0.0 | 0.00 | 0.00 | 0.00 | 85 | 1004.0 |
| 20260903114521 | 16 | 360 | 4.8 | 0.0 | 0.00 | 0.00 | 0.00 | 85 | 1003.4 |
| 20260903113521 | 16 | 360 | 3.2 | 0.0 | 0.00 | 0.00 | 0.00 | 84 | 1003.9 |
| 20260903113032 | 16 | 360 | 3.2 | 0.0 | 0.00 | 0.00 | 0.00 | 84 | 1004.5 |
| 20260903112522 | 16 | 360 | 1.6 | 0.0 | 0.00 | 0.00 | 0.00 | 83 | 1004.5 |
| 20260903112023 | 16 | 360 | 3.2 | 0.0 | 0.00 | 0.00 | 0.00 | 83 | 1004.0 |
| 20260903111519 | 16 | 360 | 4.8 | 0.0 | 0.00 | 0.00 | 0.00 | 83 | 1003.5 |
| 20260903111019 | 16 | 360 | 6.4 | 0.0 | 0.00 | 0.00 | 0.00 | 83 | 1003.6 |
| 20260903110521 | 16 | 360 | 8.0 | 0.0 | 0.00 | 0.00 | 0.00 | 83 | 1003.6 |
| 20260903110039 | 16 | 360 | 8.0 | 0.0 | 0.00 | 0.00 | 0.00 | 83 | 1003.4 |
| 20260903105517 | 17 | 360 | 9.7 | 0.0 | 0.00 | 0.00 | 0.00 | 83 | 1003.5 |
| 20260903105018 | 17 | 360 | 14.5 | 0.0 | 0.00 | 0.00 | 0.00 | 83 | 1003.7 |
| 20260903104517 | 17 | 360 | 17.7 | 0.0 | 0.00 | 0.00 | 0.00 | 84 | 1003.5 |
| 20260903103520 | 17 | 360 | 20.9 | 0.0 | 0.00 | 0.00 | 0.00 | 84 | 1003.6 |
| 20260903103015 | 17 | 360 | 22.5 | 0.0 | 0.00 | 0.00 | 0.00 | 84 | 1003.6 |
| 20260903102514 | 17 | 360 | 22.5 | 0.0 | 0.00 | 0.00 | 0.00 | 83 | 1003.6 |
| 20260903102013 | 17 | 360 | 20.9 | 0.0 | 0.00 | 0.00 | 0.00 | 84 | 1003.6 |
| 20260903101513 | 17 | 360 | 17.7 | 0.0 | 0.00 | 0.00 | 0.00 | 84 | 1003.8 |
| 20260903101012 | 17 | 360 | 17.7 | 0.0 | 0.00 | 0.00 | 0.00 | 83 | 1003.4 |
| 20260903100511 | 17 | 360 | 17.7 | 0.0 | 0.00 | 0.00 | 0.00 | 83 | 1003.4 |
| 20260903100009 | 17 | 360 | 17.7 | 0.0 | 0.00 | 0.00 | 0.00 | 82 | 1003.5 |
| 20260903095508 | 17 | 360 | 17.7 | 0.0 | 0.00 | 0.00 | 0.00 | 81 | 1003.7 |
| 20260903095007 | 17 | 360 | 17.7 | 0.0 | 0.00 | 0.00 | 0.00 | 79 | 1003.7 |
| 20260903094520 | 18 | 360 | 16.1 | 0.0 | 0.00 | 0.00 | 0.00 | 75 | 1003.7 |
| 20260903093508 | 19 | 360 | 14.5 | 0.0 | 0.00 | 0.00 | 0.00 | 70 | 1003.5 |
| 20260903093006 | 19 | 360 | 14.5 | 0.0 | 0.00 | 0.00 | 0.00 | 69 | 1003.4 |
| 20260903092505 | 19 | 360 | 14.5 | 0.0 | 0.00 | 0.00 | 0.00 | 70 | 1003.5 |
| 20260903092005 | 19 | 360 | 11.3 | 0.0 | 0.00 | 0.00 | 0.00 | 71 | 1003.6 |
| 20260903091504 | 18 | 360 | 9.7 | 0.0 | 0.00 | 0.00 | 0.00 | 73 | 1003.8 |
| 20260903091004 | 18 | 360 | 9.7 | 0.0 | 0.00 | 0.00 | 0.00 | 74 | 1003.7 |
| 20260903090504 | 18 | 360 | 9.7 | 0.0 | 0.00 | 0.00 | 0.00 | 75 | 1003.6 |
| 20260903090004 | 18 | 360 | 11.3 | 0.0 | 0.00 | 0.00 | 0.00 | 76 | 1003.9 |
| 20260903085503 | 18 | 360 | 11.3 | 0.0 | 0.00 | 0.00 | 0.00 | 76 | 1004.0 |
| 20260903085003 | 18 | 360 | 11.3 | 0.0 | 0.00 | 0.00 | 0.00 | 76 | 1004.0 |
| 20260903084502 | 18 | 360 | 9.7 | 0.0 | 0.00 | 0.00 | 0.00 | 76 | 1004.2 |
| 20260903083501 | 18 | 360 | 9.7 | 0.0 | 0.00 | 0.00 | 0.00 | 75 | 1004.5 |
| 20260903083002 | 18 | 360 | 9.7 | 0.0 | 0.00 | 0.00 | 0.00 | 75 | 1004.6 |
| 20260903082600 | 18 | 360 | 9.7 | 0.0 | 0.00 | 0.00 | 0.00 | 75 | 1004.5 |
| 20260903082101 | 18 | 360 | 9.7 | 0.0 | 0.00 | 0.00 | 0.00 | 75 | 1004.5 |
| 20260903081612 | 18 | 360 | 9.7 | 0.0 | 0.00 | 0.00 | 0.00 | 75 | 1004.6 |
| 20260903081059 | 18 | 360 | 9.7 | 0.0 | 0.00 | 0.00 | 0.00 | 74 | 1004.5 |
| 20260903080600 | 18 | 360 | 14.5 | 0.0 | 0.00 | 0.00 | 0.00 | 74 | 1004.4 |
| 20260903080058 | 18 | 360 | 17.7 | 0.0 | 0.00 | 0.00 | 0.00 | 72 | 1004.6 |
| 20260903075557 | 19 | 360 | 16.1 | 0.0 | 0.00 | 0.00 | 0.00 | 71 | 1004.5 |
| 20260903075055 | 19 | 360 | 17.7 | 0.0 | 0.00 | 0.00 | 0.00 | 69 | 1004.5 |
| 20260903074605 | 20 | 360 | 17.7 | 0.0 | 0.00 | 0.00 | 0.00 | 67 | 1004.6 |
| 20260903073552 | 21 | 360 | 17.7 | 0.0 | 0.00 | 0.00 | 0.00 | 61 | 1004.8 |
| 20260903073050 | 22 | 360 | 12.9 | 0.0 | 0.00 | 0.00 | 0.00 | 60 | 1004.8 |
| 20260903072550 | 23 | 360 | 6.4 | 0.0 | 0.00 | 0.00 | 0.00 | 65 | 1004.8 |
| 20260903072050 | 23 | 360 | 4.8 | 0.0 | 0.00 | 0.00 | 0.00 | 65 | 1004.7 |
| 20260903071553 | 23 | 360 | 8.0 | 0.0 | 0.00 | 0.00 | 0.00 | 66 | 1004.8 |
| 20260903071049 | 23 | 360 | 14.5 | 0.0 | 0.00 | 0.00 | 0.00 | 66 | 1004.9 |
| 20260903070553 | 22 | 360 | 20.9 | 0.0 | 0.00 | 0.00 | 0.00 | 66 | 1004.9 |
| 20260903070050 | 22 | 360 | 16.1 | 0.0 | 0.00 | 0.00 | 0.00 | 68 | 1004.8 |
| 20260903065551 | 22 | 360 | 12.9 | 0.0 | 0.00 | 0.00 | 0.00 | 67 | 1004.5 |
| 20260903065049 | 22 | 360 | 14.5 | 0.0 | 0.00 | 0.00 | 0.00 | 67 | 1002.8 |
| 20260903064551 | 22 | 360 | 16.1 | 0.0 | 0.00 | 0.00 | 0.00 | 67 | 1002.9 |
| 20260903063550 | 22 | 360 | 17.7 | 0.0 | 0.00 | 0.00 | 0.00 | 68 | 1002.5 |
| 20260903063049 | 22 | 360 | 16.1 | 0.0 | 0.00 | 0.00 | 0.00 | 68 | 1002.3 |
| 20260903062553 | 22 | 360 | 16.1 | 0.0 | 0.00 | 0.00 | 0.00 | 68 | 1002.2 |
| 20260903062047 | 22 | 360 | 14.5 | 0.0 | 0.00 | 0.00 | 0.00 | 68 | 1002.1 |
| 20260903061553 | 22 | 360 | 16.1 | 0.0 | 0.00 | 0.00 | 0.00 | 67 | 1002.2 |
| 20260903061048 | 22 | 360 | 14.5 | 0.0 | 0.00 | 0.00 | 0.00 | 66 | 1002.3 |
| 20260903060548 | 22 | 360 | 14.5 | 0.0 | 0.00 | 0.00 | 0.00 | 66 | 1002.4 |
| 20260903060051 | 22 | 360 | 16.1 | 0.0 | 0.00 | 0.00 | 0.00 | 65 | 1002.7 |
| 20260903055547 | 22 | 360 | 16.1 | 0.0 | 0.00 | 0.00 | 0.00 | 65 | 1002.7 |
| 20260903055047 | 22 | 360 | 17.7 | 0.0 | 0.00 | 0.00 | 0.00 | 65 | 1002.8 |
| 20260903054550 | 22 | 360 | 16.1 | 0.0 | 0.00 | 0.00 | 0.00 | 65 | 1002.8 |
| 20260903053550 | 22 | 360 | 16.1 | 0.0 | 0.00 | 0.00 | 0.00 | 67 | 1002.9 |
| 20260903053104 | 22 | 360 | 17.7 | 0.0 | 0.00 | 0.00 | 0.00 | 67 | 1002.8 |
| 20260903052548 | 22 | 360 | 16.1 | 0.0 | 0.00 | 0.00 | 0.00 | 68 | 1002.6 |
| 20260903052050 | 22 | 360 | 14.5 | 0.0 | 0.00 | 0.00 | 0.00 | 68 | 1002.3 |
| 20260903051552 | 22 | 360 | 16.1 | 0.0 | 0.00 | 0.00 | 0.00 | 68 | 1002.2 |